Content
SEND FEEDBACK

Daily
Averages
Monthly
Summary
Canada

VICTORIA, BRITISH COLUMBIA


Home > North America > Canada > British Columbia
Elevation: 62 feet     Latitude: 48 39N     Longitude: 123 26W

WEATHER
 
SELECT A DAY
Number of Records: 195,143;   Date Range: 1/1/95 - 7/20/14
 
SHARE

PRINT THIS DATA

[ ← Previous Day ]
WEATHER ALMANAC - SEPTEMBER 15, 2013
[ Next Day → ]
[ °C ]   °F
Weather ElementAverageHighLow
Temperature56 °F59 °F (2:00 pm)51.8 °F (2:00 am)
Dewpoint54.8 °F57.2 °F (5:38 pm)50 °F (4:00 am)
Humidity96.2 %100 % (2:00 am)82 % (2:00 pm)
Barometer29.74 in29.78 in (9:00 pm)29.71 in (2:00 pm)
Wind Speed5.6 mph26.5 mph (5:38 pm)
Wind Gust40.3 mph (5:38 pm)
Weather ElementAverage
Visibility9.2 mi
Wind DirectionESE (113.6 °)

Weather ElementTotal
Precipitation---
Heating Degree Days9.6 (Base 65)
Growing Degree Days5.4 (Base 50)
Averaged from 45 records on September 15, 2013
WEATHER CONDITIONS BREAKOUT
WIND DIRECTION BREAKOUT
WEATHER BY HOUR - SEPTEMBER 15, 2013
[ °C ]   °F
Local TimeTemperatureDewpointHumidityBarometerVisibilityWind DirectionWind SpeedGust SpeedPrecipitationEventsConditions
1:00 AM53.6 °F51.8 °F94 %29.76 in15.0 miESE (120°)3.5 mphClear
2:00 AM51.8 °F51.8 °F100 %29.75 in12.0 miCalmClear
3:00 AM53.6 °F51.8 °F94 %29.75 in8.0 miENE (70°)2.3 mphClear
4:00 AM51.8 °F50.0 °F94 %29.74 in4.0 miCalmOvercast
5:00 AM53.6 °F51.8 °F94 %29.73 in3.0 miCalmOvercast
5:00 AM53.0 °F53.0 °F99 %29.73 in3.0 miENE (70°)1.2 mphMist
5:29 AM53.6 °F53.6 °F100 %29.73 in0.8 miCalmOvercast
5:54 AM53.6 °F53.6 °F100 %29.73 in0.4 miSE (130°)2.3 mphFogFog
6:00 AM53.6 °F53.6 °F100 %29.73 in0.2 miESE (110°)3.5 mphFogFog
6:16 AM53.6 °F53.6 °F100 %29.73 in0.1 miSE (130°)2.3 mphFogFog
7:00 AM53.6 °F53.6 °F100 %29.73 in0.2 miSE (140°)4.6 mphFogFog
8:00 AM53.6 °F53.6 °F100 %29.72 in0.1 miSE (130°)3.5 mphFogFog
9:00 AM55.4 °F55.4 °F100 %29.72 in0.2 miSE (140°)4.6 mphFogFog
9:13 AM55.4 °F55.4 °F100 %29.72 in0.5 miESE (120°)3.5 mphFogFog
10:00 AM55.4 °F55.4 °F100 %29.72 in0.4 miSE (140°)4.6 mphFogFog
10:21 AM55.4 °F55.4 °F100 %29.72 in0.5 miESE (120°)4.6 mphFogFog
10:42 AM55.4 °F55.4 °F100 %29.73 in0.8 miESE (120°)4.6 mphOvercast
10:50 AM57.2 °F55.4 °F94 %29.73 in1.0 miEast (90°)6.9 mphOvercast
11:00 AM56.0 °F54.0 °F93 %29.73 in3.0 miESE (120°)8.1 mphMist
11:00 AM55.4 °F53.6 °F94 %29.73 in3.0 miESE (120°)10.4 mphOvercast
11:19 AM55.4 °F53.6 °F94 %29.74 in4.0 miESE (120°)10.4 mphOvercast
12:00 PM57.2 °F53.6 °F88 %29.75 in20.0 miESE (120°)8.1 mphMostly Cloudy
1:00 PM57.2 °F55.4 °F94 %29.74 in20.0 miNE (50°)9.2 mphOvercast
2:00 PM59.0 °F53.6 °F82 %29.71 in30.0 miEast (100°)13.8 mphOvercast
3:00 PM59.0 °F55.4 °F88 %29.75 in15.0 miSE (130°)9.2 mph20.7 mphMostly Cloudy
3:48 PM57.2 °F55.4 °F94 %29.76 in20.0 miENE (70°)10.4 mphRainLight Rain
4:00 PM57.2 °F55.4 °F94 %29.76 in20.0 miENE (60°)4.6 mphRainLight Rain
4:17 PM57.2 °F55.4 °F94 %29.75 in20.0 miNE (50°)5.8 mphOvercast
4:39 PM57.2 °F55.4 °F94 %29.76 in20.0 miESE (110°)3.5 mphRainLight Rain
5:00 PM58.0 °F56.0 °F91 %29.73 in19.0 miNorth (350°)4.6 mphRainLight Rain
5:00 PM57.2 °F55.4 °F94 %29.73 in20.0 miNNW (340°)4.6 mphRainLight Rain
5:38 PM59.0 °F57.2 °F94 %29.73 in10.0 miSSE (160°)26.5 mph40.3 mphRain-ThunderstormLight Thunderstorms and Rain
6:00 PM57.2 °F57.2 °F100 %29.75 in15.0 miSSE (160°)10.4 mphRainLight Rain
6:46 PM59.0 °F57.2 °F94 %29.76 in15.0 miNNE (30°)2.3 mphRain-ThunderstormLight Thunderstorms and Rain
7:00 PM59.0 °F57.2 °F94 %29.73 in8.0 miNorth (360°)5.8 mphRain-ThunderstormLight Thunderstorms and Rain
7:35 PM57.2 °F55.4 °F94 %29.75 in8.0 miEast (90°)10.4 mphOvercast
7:48 PM55.4 °F55.4 °F100 %29.76 in6.0 miSouth (170°)5.8 mphRainLight Rain
8:00 PM57.2 °F57.2 °F100 %29.77 in10.0 miSE (130°)6.9 mphRainLight Rain
8:21 PM57.2 °F57.2 °F100 %29.76 in20.0 miEast (90°)4.6 mphOvercast
9:00 PM57.2 °F57.2 °F100 %29.78 in20.0 miVariable2.3 mphOvercast
9:36 PM57.2 °F57.2 °F100 %29.78 in12.0 miNNE (30°)2.3 mphOvercast
10:00 PM57.2 °F57.2 °F100 %29.77 in12.0 miEast (100°)6.9 mphOvercast
11:00 PM56.0 °F55.0 °F95 %29.77 in5.0 miSSE (150°)2.3 mphMist
11:00 PM55.4 °F55.4 °F100 %29.77 in5.0 miSE (140°)2.3 mphOvercast
11:38 PM57.2 °F55.4 °F94 %29.77 in5.0 miSE (130°)6.9 mphRainLight Rain
Hourly data recorded from CYYJ, located miles away from Victoria, British Columbia







STORIES FROM OUR PARTNERS